Regional Weather Roundup
Issued by NWS

Home | Current Version | Previous Version | Text Only | Print | Product List | Glossary On
Versions: 1 2 3 4 5 6 7 8 9 10 11 12 13 14 15 16 17 18 19 20 21 22 23 24 25 26 27 28 29 30 31 32 33 34 35 36 37 38 39 40 41 42 43 44 45 46 47 48 49 50
118
ASUS45 KSLC 161610
RWRUT

UTAH REGIONAL WEATHER ROUNDUP
NATIONAL WEATHER SERVICE SALT LAKE CITY UT
1000 AM MDT TUE JUL 16 2019

UTZ001>011-023>025-161700-

NORTHERN UTAH

CITY           SKY/WX    TMP DP  RH WIND       PRES   REMARKS
BRIGHAM CITY   SUNNY     76  47  36 CALM      29.98S
DUGWAY         SUNNY     80  42  25 VRB2      29.99F
HILL AFB       SUNNY     75  43  31 SE7       30.00S
LOGAN          SUNNY     70  52  52 N5        30.00S
OGDEN          SUNNY     78  43  28 SE9       29.97F
SALT LAKE CITY MOSUNNY   83  44  25 SE12      29.96S
TOOELE VALLEY  SUNNY     82  50  32 E3        29.97F
WENDOVER       SUNNY     82  42  24 SE6       29.98S
HEBER CITY       N/A     68  41  37 CALM      30.09F
WEST JORDAN    SUNNY     80  46  29 SE10      30.00F

$$

UTZ011>015-024>027-161700-

CENTRAL/NORTHEAST UTAH

CITY           SKY/WX    TMP DP  RH WIND       PRES   REMARKS
PROVO AIRPORT  SUNNY     76  44  32 CALM      30.02S
MOAB/CANYONLAN SUNNY     89  44  20 VRB5      29.99S
DELTA          SUNNY     81  27  13 S7        30.02S
PRICE          SUNNY     81  29  15 NE6       30.11S
RICHFIELD      SUNNY     81  41  24 CALM      30.05F
ROOSEVELT      SUNNY     79  37  22 E7        30.08S
VERNAL         SUNNY     79  40  24 VRB5      30.06S

$$

UTZ013>016-019>022-027-161700-

SOUTHERN UTAH

CITY           SKY/WX    TMP DP  RH WIND       PRES   REMARKS
BRYCE CANYON   SUNNY     76  30  18 SW7       30.28S
CEDAR CITY     SUNNY     87  21   9 SW14      30.09S
MILFORD        SUNNY     85  25  11 SW15      30.03S
ST GEORGE      SUNNY     85  35  16 CALM      29.92S
KANAB          SUNNY     82  37  20 CALM      30.12S
BLANDING         N/A     82  45  27 SE8       30.23S

$$

REGIONAL REPORTS     COLORADO/ARIZONA

CITY           SKY/WX    TMP DP  RH WIND       PRES   REMARKS
CRAIG, CO      MOSUNNY   77  51  40 E12       30.14S
GRAND JUNCTION SUNNY     82  51  34 SE10      30.05S
RIFLE, CO      MOSUNNY   76  52  43 NW7       30.13S
MONTROSE, CO   SUNNY     78  49  35 CALM      30.15F
CORTEZ, CO     MOSUNNY   81  50  33 CALM      30.17S
COLORADO CITY    N/A     88  34  14 SE8       30.09S
PAGE, AZ       SUNNY     89  33  13 NE3       30.02S
GRAND CANYON   SUNNY     81  34  18 S12       30.24S
KINGMAN, AZ    SUNNY     95  23   7 SW7       29.96R
FLAGSTAFF, AZ  SUNNY     80  40  23 SW13G23   30.28S

$$

REGIONAL REPORTS    NEVADA/IDAHO/WYOMING

CITY           SKY/WX    TMP DP  RH WIND       PRES   REMARKS
LAS VEGAS, NV  SUNNY     94  25   8 S9        29.82S
ELY, NY        SUNNY     73  25  16 VRB3      30.11F
ELKO, NV       MOSUNNY   70  37  29 CALM      30.06S
POCATELLO, ID  SUNNY     70  48  45 W15       30.04S
BURLEY, ID     PTSUNNY   69  49  48 W12G18    30.02S
EVANSTON, WY   SUNNY     68  38  33 CALM      30.18S
ROCK SPRINGS,  SUNNY     70  36  28 VRB3      30.15S
KEMMERER, WY   SUNNY     68  39  34 CALM      30.19S

$$




USA.gov is the U.S. government's official web portal to all federal, state and local government web resources and services.